Year,Month,Day,Hour,Minute,Value (Times are PST for temperature in C)
2007,10,13,00,00,6.70
2007,10,13,00,01,6.70
2007,10,13,00,02,6.70
2007,10,13,00,03,6.70
2007,10,13,00,04,6.70
2007,10,13,00,05,6.70
2007,10,13,00,06,6.70
2007,10,13,00,07,6.60
2007,10,13,00,08,6.60
2007,10,13,00,09,6.60
2007,10,13,00,10,6.60
2007,10,13,00,11,6.60
2007,10,13,00,12,6.60
2007,10,13,00,13,6.60
2007,10,13,00,14,6.60
2007,10,13,00,15,6.60
2007,10,13,00,16,6.60
2007,10,13,00,17,6.60
2007,10,13,00,18,6.60
2007,10,13,00,19,6.60
2007,10,13,00,20,6.60
2007,10,13,00,21,6.60
2007,10,13,00,22,6.60
2007,10,13,00,23,6.60
2007,10,13,00,24,6.60
2007,10,13,00,25,6.60
2007,10,13,00,26,6.60
2007,10,13,00,27,6.60
2007,10,13,00,28,6.70
2007,10,13,00,29,6.70
2007,10,13,00,30,6.70
2007,10,13,00,31,6.70
2007,10,13,00,32,6.70
2007,10,13,00,33,6.70
2007,10,13,00,34,6.80
2007,10,13,00,35,6.80
2007,10,13,00,36,6.80
2007,10,13,00,37,6.80
2007,10,13,00,38,6.80
2007,10,13,00,39,6.70
2007,10,13,00,40,6.70
2007,10,13,00,41,6.70
2007,10,13,00,42,6.70
2007,10,13,00,43,6.70
2007,10,13,00,44,6.70
2007,10,13,00,45,6.60
2007,10,13,00,46,6.60
2007,10,13,00,47,6.60
2007,10,13,00,48,6.50
2007,10,13,00,49,6.50
2007,10,13,00,50,6.40
2007,10,13,00,51,6.40
2007,10,13,00,52,6.40
2007,10,13,00,53,6.30
2007,10,13,00,54,6.30
2007,10,13,00,55,6.30
2007,10,13,00,56,6.30
2007,10,13,00,57,6.30
2007,10,13,00,58,6.30
2007,10,13,00,59,6.30
2007,10,13,01,00,6.30
2007,10,13,01,01,6.30
2007,10,13,01,02,6.30
2007,10,13,01,03,6.30
2007,10,13,01,04,6.30
2007,10,13,01,05,6.30
2007,10,13,01,06,6.30
2007,10,13,01,07,6.30
2007,10,13,01,08,6.30
2007,10,13,01,09,6.30
2007,10,13,01,10,6.20
2007,10,13,01,11,6.20
2007,10,13,01,12,6.20
2007,10,13,01,13,6.20
2007,10,13,01,14,6.20
2007,10,13,01,15,6.20
2007,10,13,01,16,6.20
2007,10,13,01,17,6.10
2007,10,13,01,18,6.10
2007,10,13,01,19,6.10
2007,10,13,01,20,6.10
2007,10,13,01,21,6.10
2007,10,13,01,22,6.10
2007,10,13,01,23,6.10
2007,10,13,01,24,6.10
2007,10,13,01,25,6.10
2007,10,13,01,26,6.10
2007,10,13,01,27,6.00
2007,10,13,01,28,6.00
2007,10,13,01,29,6.00
2007,10,13,01,30,6.00
2007,10,13,01,31,6.00
2007,10,13,01,32,5.90
2007,10,13,01,33,5.90
2007,10,13,01,34,5.90
2007,10,13,01,35,5.90
2007,10,13,01,36,5.90
2007,10,13,01,37,5.80
2007,10,13,01,38,5.80
2007,10,13,01,39,5.80
2007,10,13,01,40,5.90
2007,10,13,01,41,5.90
2007,10,13,01,42,5.90
2007,10,13,01,43,5.80
2007,10,13,01,44,5.80
2007,10,13,01,45,5.80
2007,10,13,01,46,5.80
2007,10,13,01,47,5.80
2007,10,13,01,48,5.80
2007,10,13,01,49,5.80
2007,10,13,01,50,5.80
2007,10,13,01,51,5.80
2007,10,13,01,52,5.80
2007,10,13,01,53,5.80
2007,10,13,01,54,5.80
2007,10,13,01,55,5.80
2007,10,13,01,56,5.80
2007,10,13,01,57,5.80
2007,10,13,01,58,5.80
2007,10,13,01,59,5.80
2007,10,13,02,00,5.80
2007,10,13,02,01,5.80
2007,10,13,02,02,5.80
2007,10,13,02,03,5.80
2007,10,13,02,04,5.80
2007,10,13,02,05,5.80
2007,10,13,02,06,5.80
2007,10,13,02,07,5.80
2007,10,13,02,08,5.80
2007,10,13,02,09,5.80
2007,10,13,02,10,5.80
2007,10,13,02,11,5.80
2007,10,13,02,12,5.80
2007,10,13,02,13,5.80
2007,10,13,02,14,5.80
2007,10,13,02,15,5.80
2007,10,13,02,16,5.80
2007,10,13,02,17,5.80
2007,10,13,02,18,5.70
2007,10,13,02,19,5.70
2007,10,13,02,20,5.70
2007,10,13,02,21,5.70
2007,10,13,02,22,5.70
2007,10,13,02,23,5.70
2007,10,13,02,24,5.70
2007,10,13,02,25,5.70
2007,10,13,02,26,5.70
2007,10,13,02,27,5.70
2007,10,13,02,28,5.70
2007,10,13,02,29,5.70
2007,10,13,02,30,5.70
2007,10,13,02,31,5.70
2007,10,13,02,32,5.70
2007,10,13,02,33,5.70
2007,10,13,02,34,5.70
2007,10,13,02,35,5.60
2007,10,13,02,36,5.60
2007,10,13,02,37,5.60
2007,10,13,02,38,5.60
2007,10,13,02,39,5.60
2007,10,13,02,40,5.60
2007,10,13,02,41,5.60
2007,10,13,02,42,5.60
2007,10,13,02,43,5.50
2007,10,13,02,44,5.50
2007,10,13,02,45,5.50
2007,10,13,02,46,5.50
2007,10,13,02,47,5.50
2007,10,13,02,48,5.50
2007,10,13,02,49,5.50
2007,10,13,02,50,5.50
2007,10,13,02,51,5.50
2007,10,13,02,52,5.40
2007,10,13,02,53,5.40
2007,10,13,02,54,5.40
2007,10,13,02,55,5.40
2007,10,13,02,56,5.40
2007,10,13,02,57,5.40
2007,10,13,02,58,5.40
2007,10,13,02,59,5.40
2007,10,13,03,00,5.40
2007,10,13,03,01,5.40
2007,10,13,03,02,5.40
2007,10,13,03,03,5.40
2007,10,13,03,04,5.40
2007,10,13,03,05,5.40
2007,10,13,03,06,5.40
2007,10,13,03,07,5.40
2007,10,13,03,08,5.40
2007,10,13,03,09,5.40
2007,10,13,03,10,5.40
2007,10,13,03,11,5.40
2007,10,13,03,12,5.40
2007,10,13,03,13,5.30
2007,10,13,03,14,5.30
2007,10,13,03,15,5.30
2007,10,13,03,16,5.30
2007,10,13,03,17,5.30
2007,10,13,03,18,5.30
2007,10,13,03,19,5.20
2007,10,13,03,20,5.20
2007,10,13,03,21,5.20
2007,10,13,03,22,5.30
2007,10,13,03,23,5.30
2007,10,13,03,24,5.30
2007,10,13,03,25,5.30
2007,10,13,03,26,5.30
2007,10,13,03,27,5.40
2007,10,13,03,28,5.30
2007,10,13,03,29,5.30
2007,10,13,03,30,5.30
2007,10,13,03,31,5.30
2007,10,13,03,32,5.30
2007,10,13,03,33,5.30
2007,10,13,03,34,5.30
2007,10,13,03,35,5.30
2007,10,13,03,36,5.30
2007,10,13,03,37,5.20
2007,10,13,03,38,5.20
2007,10,13,03,39,5.20
2007,10,13,03,40,5.20
2007,10,13,03,41,5.20
2007,10,13,03,42,5.20
2007,10,13,03,43,5.20
2007,10,13,03,44,5.20
2007,10,13,03,45,5.10
2007,10,13,03,46,5.10
2007,10,13,03,47,5.10
2007,10,13,03,48,5.10
2007,10,13,03,49,5.10
2007,10,13,03,50,5.10
2007,10,13,03,51,5.00
2007,10,13,03,52,5.00
2007,10,13,03,53,5.00
2007,10,13,03,54,5.00
2007,10,13,03,55,5.00
2007,10,13,03,56,5.00
2007,10,13,03,57,5.00
2007,10,13,03,58,5.00
2007,10,13,03,59,5.00
2007,10,13,04,00,4.90
2007,10,13,04,01,4.90
2007,10,13,04,02,5.00
2007,10,13,04,03,4.90
2007,10,13,04,04,4.90
2007,10,13,04,05,4.90
2007,10,13,04,06,4.90
2007,10,13,04,07,4.80
2007,10,13,04,08,4.80
2007,10,13,04,09,4.80
2007,10,13,04,10,4.80
2007,10,13,04,11,4.80
2007,10,13,04,12,4.80
2007,10,13,04,13,4.80
2007,10,13,04,14,4.90
2007,10,13,04,15,4.90
2007,10,13,04,16,4.90
2007,10,13,04,17,4.90
2007,10,13,04,18,4.90
2007,10,13,04,19,4.90
2007,10,13,04,20,5.00
2007,10,13,04,21,5.00
2007,10,13,04,22,5.00
2007,10,13,04,23,5.00
2007,10,13,04,24,5.00
2007,10,13,04,25,5.00
2007,10,13,04,26,4.90
2007,10,13,04,27,4.90
2007,10,13,04,28,4.90
2007,10,13,04,29,4.90
2007,10,13,04,30,5.00
2007,10,13,04,31,5.00
2007,10,13,04,32,5.00
2007,10,13,04,33,5.00
2007,10,13,04,34,5.00
2007,10,13,04,35,5.00
2007,10,13,04,36,5.00
2007,10,13,04,37,5.00
2007,10,13,04,38,5.00
2007,10,13,04,39,5.00
2007,10,13,04,40,5.00
2007,10,13,04,41,5.00
2007,10,13,04,42,5.00
2007,10,13,04,43,5.00
2007,10,13,04,44,5.00
2007,10,13,04,45,5.10
2007,10,13,04,46,5.10
2007,10,13,04,47,5.00
2007,10,13,04,48,5.00
2007,10,13,04,49,5.00
2007,10,13,04,50,5.00
2007,10,13,04,51,4.90
2007,10,13,04,52,4.90
2007,10,13,04,53,4.90
2007,10,13,04,54,4.90
2007,10,13,04,55,4.90
2007,10,13,04,56,4.90
2007,10,13,04,57,4.90
2007,10,13,04,58,4.90
2007,10,13,04,59,4.90
2007,10,13,05,00,4.90
2007,10,13,05,01,4.90
2007,10,13,05,02,4.90
2007,10,13,05,03,4.90
2007,10,13,05,04,4.90
2007,10,13,05,05,4.90
2007,10,13,05,06,4.90
2007,10,13,05,07,4.90
2007,10,13,05,08,4.90
2007,10,13,05,09,4.90
2007,10,13,05,10,4.90
2007,10,13,05,11,4.90
2007,10,13,05,12,4.90
2007,10,13,05,13,4.90
2007,10,13,05,14,4.90
2007,10,13,05,15,4.90
2007,10,13,05,16,4.90
2007,10,13,05,17,4.90
2007,10,13,05,18,4.90
2007,10,13,05,19,4.90
2007,10,13,05,20,5.00
2007,10,13,05,21,5.00
2007,10,13,05,22,5.10
2007,10,13,05,23,5.10
2007,10,13,05,24,5.10
2007,10,13,05,25,5.10
2007,10,13,05,26,5.10
2007,10,13,05,27,5.10
2007,10,13,05,28,5.10
2007,10,13,05,29,5.10
2007,10,13,05,30,5.10
2007,10,13,05,31,5.10
2007,10,13,05,32,5.10
2007,10,13,05,33,5.10
2007,10,13,05,34,5.10
2007,10,13,05,35,5.10
2007,10,13,05,36,5.10
2007,10,13,05,37,5.10
2007,10,13,05,38,5.10
2007,10,13,05,39,5.10
2007,10,13,05,40,5.10
2007,10,13,05,41,5.10
2007,10,13,05,42,5.10
2007,10,13,05,43,5.20
2007,10,13,05,44,5.20
2007,10,13,05,45,5.20
2007,10,13,05,46,5.20
2007,10,13,05,47,5.20
2007,10,13,05,48,5.20
2007,10,13,05,49,5.20
2007,10,13,05,50,5.20
2007,10,13,05,51,5.20
2007,10,13,05,52,5.10
2007,10,13,05,53,5.10
2007,10,13,05,54,5.10
2007,10,13,05,55,5.10
2007,10,13,05,56,5.10
2007,10,13,05,57,5.10
2007,10,13,05,58,5.10
2007,10,13,05,59,5.10
2007,10,13,06,00,5.00
2007,10,13,06,01,5.00
2007,10,13,06,02,5.00
2007,10,13,06,03,5.00
2007,10,13,06,04,5.00
2007,10,13,06,05,5.00
2007,10,13,06,06,4.90
2007,10,13,06,07,4.90
2007,10,13,06,08,4.90
2007,10,13,06,09,4.90
2007,10,13,06,10,4.90
2007,10,13,06,11,4.90
2007,10,13,06,12,4.90
2007,10,13,06,13,4.90
2007,10,13,06,14,4.90
2007,10,13,06,15,4.90
2007,10,13,06,16,4.90
2007,10,13,06,17,5.00
2007,10,13,06,18,5.00
2007,10,13,06,19,5.00
2007,10,13,06,20,5.00
2007,10,13,06,21,5.00
2007,10,13,06,22,5.00
2007,10,13,06,23,5.00
2007,10,13,06,24,5.00
2007,10,13,06,25,5.00
2007,10,13,06,26,5.00
2007,10,13,06,27,5.00
2007,10,13,06,28,5.00
2007,10,13,06,29,5.00
2007,10,13,06,30,5.00
2007,10,13,06,31,5.00
2007,10,13,06,32,5.00
2007,10,13,06,33,5.00
2007,10,13,06,34,5.00
2007,10,13,06,35,5.00
2007,10,13,06,36,5.00
2007,10,13,06,37,5.00
2007,10,13,06,38,5.00
2007,10,13,06,39,5.00
2007,10,13,06,40,5.00
2007,10,13,06,41,5.00
2007,10,13,06,42,5.00
2007,10,13,06,43,5.00
2007,10,13,06,44,5.00
2007,10,13,06,45,4.90
2007,10,13,06,46,4.90
2007,10,13,06,47,4.90
2007,10,13,06,48,4.90
2007,10,13,06,49,4.90
2007,10,13,06,50,4.90
2007,10,13,06,51,4.80
2007,10,13,06,52,4.80
2007,10,13,06,53,4.80
2007,10,13,06,54,4.80
2007,10,13,06,55,4.80
2007,10,13,06,56,4.80
2007,10,13,06,57,4.90
2007,10,13,06,58,4.90
2007,10,13,06,59,4.90
2007,10,13,07,00,4.90
2007,10,13,07,01,4.90
2007,10,13,07,02,4.90
2007,10,13,07,03,4.90
2007,10,13,07,04,4.90
2007,10,13,07,05,4.90
2007,10,13,07,06,4.90
2007,10,13,07,07,4.80
2007,10,13,07,08,4.90
2007,10,13,07,09,4.90
2007,10,13,07,10,4.90
2007,10,13,07,11,4.90
2007,10,13,07,12,4.90
2007,10,13,07,13,4.90
2007,10,13,07,14,4.90
2007,10,13,07,15,4.90
2007,10,13,07,16,5.00
2007,10,13,07,17,5.00
2007,10,13,07,18,5.00
2007,10,13,07,19,5.00
2007,10,13,07,20,5.00
2007,10,13,07,21,5.00
2007,10,13,07,22,5.00
2007,10,13,07,23,5.00
2007,10,13,07,24,5.00
2007,10,13,07,25,5.00
2007,10,13,07,26,5.00
2007,10,13,07,27,5.00
2007,10,13,07,28,5.00
2007,10,13,07,29,5.00
2007,10,13,07,30,5.00
2007,10,13,07,31,5.00
2007,10,13,07,32,5.00
2007,10,13,07,33,5.00
2007,10,13,07,34,4.90
2007,10,13,07,35,4.90
2007,10,13,07,36,4.90
2007,10,13,07,37,4.90
2007,10,13,07,38,4.90
2007,10,13,07,39,4.80
2007,10,13,07,40,4.80
2007,10,13,07,41,4.80
2007,10,13,07,42,4.80
2007,10,13,07,43,4.80
2007,10,13,07,44,4.80
2007,10,13,07,45,4.80
2007,10,13,07,46,4.80
2007,10,13,07,47,4.80
2007,10,13,07,48,4.80
2007,10,13,07,49,4.80
2007,10,13,07,50,4.80
2007,10,13,07,51,4.80
2007,10,13,07,52,4.80
2007,10,13,07,53,4.80
2007,10,13,07,54,4.80
2007,10,13,07,55,4.80
2007,10,13,07,56,4.80
2007,10,13,07,57,4.80
2007,10,13,07,58,4.80
2007,10,13,07,59,4.80
2007,10,13,08,00,4.80
2007,10,13,08,01,4.80
2007,10,13,08,02,4.80
2007,10,13,08,03,4.80
2007,10,13,08,04,4.80
2007,10,13,08,05,4.80
2007,10,13,08,06,4.80
2007,10,13,08,07,4.80
2007,10,13,08,08,4.70
2007,10,13,08,09,4.70
2007,10,13,08,10,4.70
2007,10,13,08,11,4.80
2007,10,13,08,12,4.80
2007,10,13,08,13,4.80
2007,10,13,08,14,4.80
2007,10,13,08,15,4.80
2007,10,13,08,16,4.80
2007,10,13,08,17,4.80
2007,10,13,08,18,4.90
2007,10,13,08,19,4.90
2007,10,13,08,20,4.90
2007,10,13,08,21,4.90
2007,10,13,08,22,4.90
2007,10,13,08,23,5.00
2007,10,13,08,24,5.00
2007,10,13,08,25,5.10
2007,10,13,08,26,5.10
2007,10,13,08,27,5.10
2007,10,13,08,28,5.10
2007,10,13,08,29,5.10
2007,10,13,08,30,5.10
2007,10,13,08,31,5.10
2007,10,13,08,32,5.20
2007,10,13,08,33,5.20
2007,10,13,08,34,5.20
2007,10,13,08,35,5.20
2007,10,13,08,36,5.20
2007,10,13,08,37,5.20
2007,10,13,08,38,5.30
2007,10,13,08,39,5.30
2007,10,13,08,40,5.30
2007,10,13,08,41,5.30
2007,10,13,08,42,5.40
2007,10,13,08,43,5.40
2007,10,13,08,44,5.40
2007,10,13,08,45,5.40
2007,10,13,08,46,5.40
2007,10,13,08,47,5.50
2007,10,13,08,48,5.50
2007,10,13,08,49,5.50
2007,10,13,08,50,5.60
2007,10,13,08,51,5.60
2007,10,13,08,52,5.60
2007,10,13,08,53,5.60
2007,10,13,08,54,5.60
2007,10,13,08,55,5.60
2007,10,13,08,56,5.60
2007,10,13,08,57,5.70
2007,10,13,08,58,5.70
2007,10,13,08,59,5.70
2007,10,13,09,00,5.70
2007,10,13,09,01,5.80
2007,10,13,09,02,5.80
2007,10,13,09,03,5.80
2007,10,13,09,04,5.80
2007,10,13,09,05,5.80
2007,10,13,09,06,5.80
2007,10,13,09,07,5.90
2007,10,13,09,08,5.90
2007,10,13,09,09,5.90
2007,10,13,09,10,5.90
2007,10,13,09,11,6.00
2007,10,13,09,12,6.00
2007,10,13,09,13,6.10
2007,10,13,09,14,6.10
2007,10,13,09,15,6.20
2007,10,13,09,16,6.20
2007,10,13,09,17,6.30
2007,10,13,09,18,6.30
2007,10,13,09,19,6.40
2007,10,13,09,20,6.40
2007,10,13,09,21,6.50
2007,10,13,09,22,6.50
2007,10,13,09,23,6.60
2007,10,13,09,24,6.60
2007,10,13,09,25,6.60
2007,10,13,09,26,6.70
2007,10,13,09,27,6.70
2007,10,13,09,28,6.80
2007,10,13,09,29,6.80
2007,10,13,09,30,6.90
2007,10,13,09,31,6.90
2007,10,13,09,32,6.90
2007,10,13,09,33,7.00
2007,10,13,09,34,7.10
2007,10,13,09,35,7.10
2007,10,13,09,36,7.10
2007,10,13,09,37,7.20
2007,10,13,09,38,7.20
2007,10,13,09,39,7.20
2007,10,13,09,40,7.20
2007,10,13,09,41,7.30
2007,10,13,09,42,7.30
2007,10,13,09,43,7.30
2007,10,13,09,44,7.30
2007,10,13,09,45,7.40
2007,10,13,09,46,7.40
2007,10,13,09,47,7.50
2007,10,13,09,48,7.50
2007,10,13,09,49,7.60
2007,10,13,09,50,7.60
2007,10,13,09,51,7.70
2007,10,13,09,52,7.70
2007,10,13,09,53,7.80
2007,10,13,09,54,7.80
2007,10,13,09,55,7.90
2007,10,13,09,56,8.00
2007,10,13,09,57,8.10
2007,10,13,09,58,8.10
2007,10,13,09,59,8.20
2007,10,13,10,00,8.20
2007,10,13,10,01,8.30
2007,10,13,10,02,8.40
2007,10,13,10,03,8.40
2007,10,13,10,04,8.50
2007,10,13,10,05,8.60
2007,10,13,10,06,8.60
2007,10,13,10,07,8.70
2007,10,13,10,08,8.70
2007,10,13,10,09,8.70
2007,10,13,10,10,8.80
2007,10,13,10,11,8.80
2007,10,13,10,12,8.80
2007,10,13,10,13,8.80
2007,10,13,10,14,8.80
2007,10,13,10,15,8.80
2007,10,13,10,16,8.80
2007,10,13,10,17,8.90
2007,10,13,10,18,8.90
2007,10,13,10,19,8.90
2007,10,13,10,20,8.90
2007,10,13,10,21,8.90
2007,10,13,10,22,8.90
2007,10,13,10,23,9.00
2007,10,13,10,24,9.00
2007,10,13,10,25,9.10
2007,10,13,10,26,9.10
2007,10,13,10,27,9.20
2007,10,13,10,28,9.20
2007,10,13,10,29,9.30
2007,10,13,10,30,9.30
2007,10,13,10,31,9.40
2007,10,13,10,32,9.50
2007,10,13,10,33,9.60
2007,10,13,10,34,9.70
2007,10,13,10,35,9.80
2007,10,13,10,36,9.90
2007,10,13,10,37,10.00
2007,10,13,10,38,10.10
2007,10,13,10,39,10.20
2007,10,13,10,40,10.30
2007,10,13,10,41,10.40
2007,10,13,10,42,10.50
2007,10,13,10,43,10.60
2007,10,13,10,44,10.70
2007,10,13,10,45,10.80
2007,10,13,10,46,10.90
2007,10,13,10,47,11.00
2007,10,13,10,48,11.10
2007,10,13,10,49,11.20
2007,10,13,10,50,11.20
2007,10,13,10,51,11.30
2007,10,13,10,52,11.30
2007,10,13,10,53,11.40
2007,10,13,10,54,11.40
2007,10,13,10,55,11.40
2007,10,13,10,56,11.50
2007,10,13,10,57,11.50
2007,10,13,10,58,11.60
2007,10,13,10,59,11.60
2007,10,13,11,00,11.60
2007,10,13,11,01,11.60
2007,10,13,11,02,11.60
2007,10,13,11,03,11.60
2007,10,13,11,04,11.60
2007,10,13,11,05,11.60
2007,10,13,11,06,11.60
2007,10,13,11,07,11.50
2007,10,13,11,08,11.50
2007,10,13,11,09,11.50
2007,10,13,11,10,11.50
2007,10,13,11,11,11.40
2007,10,13,11,12,11.40
2007,10,13,11,13,11.40
2007,10,13,11,14,11.30
2007,10,13,11,15,11.30
2007,10,13,11,16,11.30
2007,10,13,11,17,11.30
2007,10,13,11,18,11.30
2007,10,13,11,19,11.30
2007,10,13,11,20,11.30
2007,10,13,11,21,11.30
2007,10,13,11,22,11.30
2007,10,13,11,23,11.30
2007,10,13,11,24,11.30
2007,10,13,11,25,11.30
2007,10,13,11,26,11.30
2007,10,13,11,27,11.30
2007,10,13,11,28,11.30
2007,10,13,11,29,11.30
2007,10,13,11,30,11.30
2007,10,13,11,31,11.40
2007,10,13,11,32,11.40
2007,10,13,11,33,11.40
2007,10,13,11,34,11.50
2007,10,13,11,35,11.50
2007,10,13,11,36,11.50
2007,10,13,11,37,11.60
2007,10,13,11,38,11.60
2007,10,13,11,39,11.60
2007,10,13,11,40,11.60
2007,10,13,11,41,11.60
2007,10,13,11,42,11.60
2007,10,13,11,43,11.60
2007,10,13,11,44,11.60
2007,10,13,11,45,11.60
2007,10,13,11,46,11.70
2007,10,13,11,47,11.70
2007,10,13,11,48,11.70
2007,10,13,11,49,11.70
2007,10,13,11,50,11.70
2007,10,13,11,51,11.70
2007,10,13,11,52,11.70
2007,10,13,11,53,11.70
2007,10,13,11,54,11.70
2007,10,13,11,55,11.70
2007,10,13,11,56,11.70
2007,10,13,11,57,11.70
2007,10,13,11,58,11.70
2007,10,13,11,59,11.60
2007,10,13,12,00,11.60
2007,10,13,12,01,11.60
2007,10,13,12,02,11.50
2007,10,13,12,03,11.50
2007,10,13,12,04,11.50
2007,10,13,12,05,11.50
2007,10,13,12,06,11.50
2007,10,13,12,07,11.50
2007,10,13,12,08,11.60
2007,10,13,12,09,11.60
2007,10,13,12,10,11.60
2007,10,13,12,11,11.60
2007,10,13,12,12,11.60
2007,10,13,12,13,11.60
2007,10,13,12,14,11.60
2007,10,13,12,15,11.70
2007,10,13,12,16,11.70
2007,10,13,12,17,11.80
2007,10,13,12,18,11.80
2007,10,13,12,19,11.90
2007,10,13,12,20,11.90
2007,10,13,12,21,12.00
2007,10,13,12,22,12.00
2007,10,13,12,23,12.10
2007,10,13,12,24,12.20
2007,10,13,12,25,12.30
2007,10,13,12,26,12.40
2007,10,13,12,27,12.40
2007,10,13,12,28,12.50
2007,10,13,12,29,12.60
2007,10,13,12,30,12.70
2007,10,13,12,31,12.70
2007,10,13,12,32,12.80
2007,10,13,12,33,12.90
2007,10,13,12,34,12.90
2007,10,13,12,35,13.00
2007,10,13,12,36,13.10
2007,10,13,12,37,13.20
2007,10,13,12,38,13.40
2007,10,13,12,39,13.40
2007,10,13,12,40,13.50
2007,10,13,12,41,13.60
2007,10,13,12,42,13.70
2007,10,13,12,43,13.70
2007,10,13,12,44,13.80
2007,10,13,12,45,13.80
2007,10,13,12,46,13.90
2007,10,13,12,47,14.00
2007,10,13,12,48,14.10
2007,10,13,12,49,14.10
2007,10,13,12,50,14.20
2007,10,13,12,51,14.20
2007,10,13,12,52,14.30
2007,10,13,12,53,14.30
2007,10,13,12,54,14.40
2007,10,13,12,55,14.40
2007,10,13,12,56,14.40
2007,10,13,12,57,14.50
2007,10,13,12,58,14.60
2007,10,13,12,59,14.60
2007,10,13,13,00,14.60
2007,10,13,13,01,14.70
2007,10,13,13,02,14.70
2007,10,13,13,03,14.70
2007,10,13,13,04,14.70
2007,10,13,13,05,14.70
2007,10,13,13,06,14.70
2007,10,13,13,07,14.70
2007,10,13,13,08,14.80
2007,10,13,13,09,14.80
2007,10,13,13,10,14.80
2007,10,13,13,11,14.80
2007,10,13,13,12,14.80
2007,10,13,13,13,14.80
2007,10,13,13,14,14.80
2007,10,13,13,15,14.90
2007,10,13,13,16,14.90
2007,10,13,13,17,15.00
2007,10,13,13,18,15.00
2007,10,13,13,19,15.00
2007,10,13,13,20,15.00
2007,10,13,13,21,15.00
2007,10,13,13,22,15.00
2007,10,13,13,23,15.00
2007,10,13,13,24,15.00
2007,10,13,13,25,15.00
2007,10,13,13,26,15.00
2007,10,13,13,27,15.00
2007,10,13,13,28,15.00
2007,10,13,13,29,15.00
2007,10,13,13,30,15.10
2007,10,13,13,31,15.20
2007,10,13,13,32,15.30
2007,10,13,13,33,15.40
2007,10,13,13,34,15.50
2007,10,13,13,35,15.50
2007,10,13,13,36,15.60
2007,10,13,13,37,15.60
2007,10,13,13,38,15.70
2007,10,13,13,39,15.70
2007,10,13,13,40,15.60
2007,10,13,13,41,15.60
2007,10,13,13,42,15.50
2007,10,13,13,43,15.50
2007,10,13,13,44,15.40
2007,10,13,13,45,15.30
2007,10,13,13,46,15.40
2007,10,13,13,47,15.40
2007,10,13,13,48,15.40
2007,10,13,13,49,15.40
2007,10,13,13,50,15.30
2007,10,13,13,51,15.30
2007,10,13,13,52,15.30
2007,10,13,13,53,15.20
2007,10,13,13,54,15.20
2007,10,13,13,55,15.20
2007,10,13,13,56,15.10
2007,10,13,13,57,15.10
2007,10,13,13,58,15.10
2007,10,13,13,59,15.10
2007,10,13,14,00,15.10
2007,10,13,14,01,15.20
2007,10,13,14,02,15.30
2007,10,13,14,03,15.30
2007,10,13,14,04,15.30
2007,10,13,14,05,15.30
2007,10,13,14,06,15.30
2007,10,13,14,07,15.30
2007,10,13,14,08,15.30
2007,10,13,14,09,15.40
2007,10,13,14,10,15.40
2007,10,13,14,11,15.40
2007,10,13,14,12,15.50
2007,10,13,14,13,15.50
2007,10,13,14,14,15.60
2007,10,13,14,15,15.70
2007,10,13,14,16,15.70
2007,10,13,14,17,15.70
2007,10,13,14,18,15.70
2007,10,13,14,19,15.70
2007,10,13,14,20,15.70
2007,10,13,14,21,15.80
2007,10,13,14,22,15.80
2007,10,13,14,23,15.80
2007,10,13,14,24,15.80
2007,10,13,14,25,15.90
2007,10,13,14,26,16.00
2007,10,13,14,27,16.10
2007,10,13,14,28,16.10
2007,10,13,14,29,16.10
2007,10,13,14,30,16.00
2007,10,13,14,31,15.90
2007,10,13,14,32,15.90
2007,10,13,14,33,15.90
2007,10,13,14,34,16.00
2007,10,13,14,35,16.00
2007,10,13,14,36,16.00
2007,10,13,14,37,16.00
2007,10,13,14,38,16.00
2007,10,13,14,39,16.00
2007,10,13,14,40,16.00
2007,10,13,14,41,16.00
2007,10,13,14,42,16.00
2007,10,13,14,43,16.00
2007,10,13,14,44,16.00
2007,10,13,14,45,16.00
2007,10,13,14,46,16.00
2007,10,13,14,47,16.00
2007,10,13,14,48,16.10
2007,10,13,14,49,16.10
2007,10,13,14,50,16.10
2007,10,13,14,51,16.20
2007,10,13,14,52,16.20
2007,10,13,14,53,16.20
2007,10,13,14,54,16.20
2007,10,13,14,55,16.10
2007,10,13,14,56,16.10
2007,10,13,14,57,16.10
2007,10,13,14,58,16.10
2007,10,13,14,59,16.10
2007,10,13,15,00,16.10
2007,10,13,15,01,16.10
2007,10,13,15,02,16.20
2007,10,13,15,03,16.20
2007,10,13,15,04,16.20
2007,10,13,15,05,16.20
2007,10,13,15,06,16.20
2007,10,13,15,07,16.30
2007,10,13,15,08,16.30
2007,10,13,15,09,16.30
2007,10,13,15,10,16.30
2007,10,13,15,11,16.20
2007,10,13,15,12,16.20
2007,10,13,15,13,16.20
2007,10,13,15,14,16.20
2007,10,13,15,15,16.20
2007,10,13,15,16,16.20
2007,10,13,15,17,16.20
2007,10,13,15,18,16.20
2007,10,13,15,19,16.20
2007,10,13,15,20,16.10
2007,10,13,15,21,16.00
2007,10,13,15,22,16.00
2007,10,13,15,23,16.00
2007,10,13,15,24,15.90
2007,10,13,15,25,15.90
2007,10,13,15,26,15.80
2007,10,13,15,27,15.80
2007,10,13,15,28,15.80
2007,10,13,15,29,15.80
2007,10,13,15,30,15.80
2007,10,13,15,31,15.80
2007,10,13,15,32,15.80
2007,10,13,15,33,15.80
2007,10,13,15,34,15.80
2007,10,13,15,35,15.80
2007,10,13,15,36,15.90
2007,10,13,15,37,15.90
2007,10,13,15,38,15.90
2007,10,13,15,39,16.00
2007,10,13,15,40,16.10
2007,10,13,15,41,16.10
2007,10,13,15,42,16.10
2007,10,13,15,43,16.10
2007,10,13,15,44,16.10
2007,10,13,15,45,16.10
2007,10,13,15,46,16.10
2007,10,13,15,47,16.00
2007,10,13,15,48,16.00
2007,10,13,15,49,15.90
2007,10,13,15,50,15.90
2007,10,13,15,51,15.80
2007,10,13,15,52,15.80
2007,10,13,15,53,15.70
2007,10,13,15,54,15.70
2007,10,13,15,55,15.60
2007,10,13,15,56,15.60
2007,10,13,15,57,15.60
2007,10,13,15,58,15.50
2007,10,13,15,59,15.50
2007,10,13,16,00,15.50
2007,10,13,16,01,15.50
2007,10,13,16,02,15.50
2007,10,13,16,03,15.50
2007,10,13,16,04,15.50
2007,10,13,16,05,15.50
2007,10,13,16,06,15.60
2007,10,13,16,07,15.60
2007,10,13,16,08,15.70
2007,10,13,16,09,15.70
2007,10,13,16,10,15.80
2007,10,13,16,11,15.80
2007,10,13,16,12,15.90
2007,10,13,16,13,15.90
2007,10,13,16,14,15.90
2007,10,13,16,15,15.90
2007,10,13,16,16,15.90
2007,10,13,16,17,15.90
2007,10,13,16,18,15.90
2007,10,13,16,19,15.80
2007,10,13,16,20,15.80
2007,10,13,16,21,15.80
2007,10,13,16,22,15.70
2007,10,13,16,23,15.70
2007,10,13,16,24,15.70
2007,10,13,16,25,15.70
2007,10,13,16,26,15.80
2007,10,13,16,27,15.80
2007,10,13,16,28,15.80
2007,10,13,16,29,15.80
2007,10,13,16,30,15.80
2007,10,13,16,31,15.80
2007,10,13,16,32,15.70
2007,10,13,16,33,15.70
2007,10,13,16,34,15.70
2007,10,13,16,35,15.70
2007,10,13,16,36,15.80
2007,10,13,16,37,15.80
2007,10,13,16,38,15.80
2007,10,13,16,39,15.90
2007,10,13,16,40,15.90
2007,10,13,16,41,15.90
2007,10,13,16,42,15.90
2007,10,13,16,43,15.90
2007,10,13,16,44,15.90
2007,10,13,16,45,15.90
2007,10,13,16,46,15.90
2007,10,13,16,47,15.90
2007,10,13,16,48,15.90
2007,10,13,16,49,15.90
2007,10,13,16,50,15.90
2007,10,13,16,51,15.80
2007,10,13,16,52,15.80
2007,10,13,16,53,15.70
2007,10,13,16,54,15.60
2007,10,13,16,55,15.60
2007,10,13,16,56,15.60
2007,10,13,16,57,15.60
2007,10,13,16,58,15.60
2007,10,13,16,59,15.60
2007,10,13,17,00,15.70
2007,10,13,17,01,15.70
2007,10,13,17,02,15.70
2007,10,13,17,03,15.70
2007,10,13,17,04,15.70
2007,10,13,17,05,15.70
2007,10,13,17,06,15.70
2007,10,13,17,07,15.70
2007,10,13,17,08,15.70
2007,10,13,17,09,15.70
2007,10,13,17,10,15.80
2007,10,13,17,11,15.80
2007,10,13,17,12,15.90
2007,10,13,17,13,15.90
2007,10,13,17,14,15.90
2007,10,13,17,15,16.00
2007,10,13,17,16,16.00
2007,10,13,17,17,16.00
2007,10,13,17,18,16.00
2007,10,13,17,19,15.90
2007,10,13,17,20,15.90
2007,10,13,17,21,15.90
2007,10,13,17,22,15.80
2007,10,13,17,23,15.80
2007,10,13,17,24,15.70
2007,10,13,17,25,15.70
2007,10,13,17,26,15.60
2007,10,13,17,27,15.50
2007,10,13,17,28,15.50
2007,10,13,17,29,15.40
2007,10,13,17,30,15.30
2007,10,13,17,31,15.20
2007,10,13,17,32,15.10
2007,10,13,17,33,15.00
2007,10,13,17,34,15.00
2007,10,13,17,35,15.00
2007,10,13,17,36,14.90
2007,10,13,17,37,14.80
2007,10,13,17,38,14.70
2007,10,13,17,39,14.70
2007,10,13,17,40,14.70
2007,10,13,17,41,14.70
2007,10,13,17,42,14.60
2007,10,13,17,43,14.60
2007,10,13,17,44,14.60
2007,10,13,17,45,14.60
2007,10,13,17,46,14.60
2007,10,13,17,47,14.60